Owensboro, KY

12:34 AM CST on December 10, 2016 (GMT -0600)
Owensboro-Daviess County

Weather History for KOWB - July, 2013

Change the Weather History Date:

Tuesday, July 30, 2013

  Actual Average Record
Temperature  
Mean Temperature 69 °F -  
Max Temperature 72 °F 87 °F 100 °F (1953)
Min Temperature 66 °F 66 °F 52 °F (1965)
Cooling Degree Days 4    
Growing Degree Days 19 (Base 50)    
Moisture  
Dew Point 66 °F    
Average Humidity 90    
Maximum Humidity 100    
Minimum Humidity 71    
Precipitation  
Precipitation 0.46 in - - ()
Sea Level Pressure  
Sea Level Pressure 30.14 in    
Wind  
Wind Speed 6 mph (ESE)    
Max Wind Speed 12 mph    
Max Gust Speed -    
Visibility 8 miles    
Events Rain    
Averages and records for this station are not official NWS values.
T = Trace of Precipitation, MM = Missing Value Source: NWS Daily Summary

Daily Weather History Graph

Daily Weather History Graph

Search for Another Location

Airport or City:

Trip Planner

Search our weather history database for the weather conditions in past years. The results will help you decide how hot, cold, wet, or windy it might be!

Date:

Astronomy

Jul. 30, 2013 Rise Set
Actual Time 5:50 AM CDT 7:58 PM CDT
Civil Twilight 5:21 AM CDT 8:28 PM CDT
Nautical Twilight 4:45 AM CDT 9:03 PM CDT
Astronomical Twilight 4:06 AM CDT 9:42 PM CDT
Moon 12:07 AM CDT (7/30) 2:18 PM CDT (7/30)
Length of Visible Light 15h 06m
Length of Day
14h 08m
Last Quarter, 41% of the Moon is Illuminated
Jul 30
Last Quarter
Aug 6
New
Aug 14
First Quarter
Aug 20
Full
Aug 28
Last Quarter

Hourly Weather History & Observations

Time (CDT) Temp. Dew Point Humidity Pressure Visibility Wind Dir Wind Speed Gust Speed Precip Events Conditions
12:56 AM 68.9 °F 63.9 °F 84% 30.17 in 10.0 mi ESE 3.5 mph - N/A   Clear
1:56 AM 68.9 °F 63.9 °F 84% 30.17 in 10.0 mi East 4.6 mph - N/A   Clear
2:56 AM 66.9 °F 64.9 °F 93% 30.17 in 10.0 mi SE 4.6 mph - N/A   Clear
3:56 AM 68.0 °F 63.9 °F 87% 30.16 in 10.0 mi East 5.8 mph - N/A   Clear
4:56 AM 66.9 °F 63.9 °F 90% 30.17 in 10.0 mi East 3.5 mph - N/A   Partly Cloudy
5:56 AM 68.0 °F 63.0 °F 84% 30.18 in 10.0 mi East 4.6 mph - N/A   Clear
6:56 AM 68.0 °F 63.0 °F 84% 30.18 in 10.0 mi East 6.9 mph - N/A   Clear
7:56 AM 68.9 °F 63.0 °F 81% 30.18 in 10.0 mi East 8.1 mph - N/A   Clear
8:56 AM 70.0 °F 61.9 °F 75% 30.18 in 10.0 mi East 8.1 mph - N/A   Partly Cloudy
9:56 AM 72.0 °F 63.9 °F 76% 30.18 in 10.0 mi ESE 5.8 mph - N/A   Clear
10:56 AM 72.9 °F 63.0 °F 71% 30.17 in 10.0 mi ESE 9.2 mph - N/A   Partly Cloudy
11:56 AM 72.9 °F 63.9 °F 73% 30.17 in 10.0 mi ESE 8.1 mph - N/A   Partly Cloudy
12:56 PM 70.9 °F 65.8 °F 84% 30.18 in 5.0 mi SE 6.9 mph - 0.01 in Rain Light Rain
1:56 PM 70.9 °F 68.0 °F 91% 30.15 in 5.0 mi East 5.8 mph - 0.06 in Rain Light Rain
2:24 PM 69.8 °F 68.0 °F 94% 30.16 in 3.0 mi SE 6.9 mph - 0.05 in Rain Rain
2:56 PM 68.9 °F 68.9 °F 100% 30.15 in 4.0 mi SE 6.9 mph - 0.08 in Rain Light Rain
3:22 PM 69.8 °F 69.8 °F 100% 30.15 in 2.0 mi SE 6.9 mph - 0.03 in Rain Light Rain
3:56 PM 68.0 °F 68.0 °F 100% 30.14 in 3.0 mi SE 6.9 mph - 0.14 in Rain Light Rain
4:56 PM 68.9 °F 68.9 °F 100% 30.12 in 5.0 mi East 11.5 mph - 0.04 in Rain Light Rain
5:56 PM 68.0 °F 68.0 °F 100% 30.10 in 4.0 mi East 9.2 mph - 0.04 in Rain Light Rain
6:56 PM 68.9 °F 68.9 °F 100% 30.09 in 3.0 mi East 8.1 mph - 0.05 in Rain Rain
7:56 PM 68.9 °F 68.9 °F 100% 30.09 in 5.0 mi ESE 9.2 mph - 0.04 in Rain Light Rain
8:56 PM 68.9 °F 68.9 °F 100% 30.08 in 10.0 mi ESE 6.9 mph - 0.00 in   Overcast
9:56 PM 68.9 °F 68.9 °F 100% 30.08 in 10.0 mi East 9.2 mph - N/A   Overcast
10:56 PM 68.9 °F 68.9 °F 100% 30.09 in 7.0 mi ESE 5.8 mph - 0.00 in Rain Light Rain
11:56 PM 68.9 °F 68.9 °F 100% 30.08 in 10.0 mi East 4.6 mph - 0.00 in   Mostly Cloudy